Location: Haliburton Scout Reserve
(45.0900°N, 78.3200°W)
Time: 10:41:33
(UTC-04:00)

S-56A Canister/Altair - Pass Details

Date: 30 January 2023
Orbit: 638 x 2493 km, 38.9° (Epoch: 25 March)

Event Time Altitude Azimuth Distance (km) Brightness Sun altitude
Rises 14:48:00 0° 261° (W) 3,375 11.5 19.6°
Reaches altitude 10° 14:50:11 10° 257° (WSW) 2,599 11.2 19.4°
Maximum altitude 14:56:13 54° 181° (S) 1,403 9.7 18.7°
Drops below altitude 10° 15:05:17 10° 108° (ESE) 3,849 10.9 17.7°
Sets 15:09:13 0° 104° (ESE) 5,141 11.5 17.3°
